Flag for Puerto Rico Weather past 2 weeks in San Juan, Puerto Rico

Now
93 °F

Passing clouds.


Feels Like: 103 °F
Forecast: 74 / 89 °F
Wind: 9 mph from South

Location: Luis Munoz Marin

Current Time: Sep 30, 2014 at 2:16:24 PM

Latest Report: Sep 30, 2014 at 1:56 PM


Visibility: 10 mi

Pressure: 29.93 "Hg

Humidity: 54%

Dew point: 74 °F

Location of San JuanLocation

Historic Weather in San Juan — Graph

°F

San Juan temperature yesterday

Maximum temperature yesterday: 93 °F (at 2:56 PM)
Minimum temperature yesterday: 79 °F (at 3:56 AM)
Average temperature yesterday: 85 °F

Past Weeks' High & Low Weather Summary

 TemperatureHumidityPressure
High93 °F (Sep 29, 2:56 PM)100% (Sep 19, 3:56 AM)30.05 "Hg (Sep 19, 3:56 AM)
Low74 °F (Sep 19, 5:56 AM)44% (Sep 29, 1:56 PM)29.84 "Hg (Sep 26, 4:56 PM)
Average82 °F81%29.95 "Hg
* Reported Sep 15 12:56 PM — Sep 30 12:56 PM, San Juan, Weather by CustomWeather, © 2014

Note: Actual official high and low records may vary slightly from our data, if they occured in-between our weather recording intervals... More about our weather records

Advertising

San Juan weather history for previous 24 hours

 ConditionsComfort  
Time TempWeatherWind HumidityBarometerVisibility
12:56 PM
Sep 30
92 °FScattered clouds.12 mph54%29.95 "Hg10 mi
11:56 AM90 °FScattered clouds.6 mph59%29.97 "Hg10 mi
10:56 AM87 °FScattered clouds.6 mph67%30.00 "Hg10 mi
9:56 AM88 °FScattered clouds.7 mph65%30.00 "Hg10 mi
8:56 AM86 °FScattered clouds.5 mph75%30.01 "Hg10 mi
7:56 AM83 °FScattered clouds.No wind79%29.98 "Hg10 mi
6:56 AM80 °FPassing clouds.No wind87%29.97 "Hg10 mi
5:56 AM79 °FPassing clouds.No wind88%29.95 "Hg10 mi
4:56 AM79 °FPassing clouds.3 mph88%29.93 "Hg10 mi
3:56 AM79 °FClear.3 mph88%29.92 "Hg10 mi
2:56 AM79 °FPassing clouds.No wind88%29.93 "Hg10 mi
1:56 AM79 °FPassing clouds.5 mph88%29.94 "Hg10 mi
12:56 AM79 °FPassing clouds.5 mph84%29.96 "Hg10 mi
11:56 PM
Sep 29
80 °FPassing clouds.No wind81%29.97 "Hg10 mi
10:56 PM81 °FClear.No wind79%29.98 "Hg10 mi
9:56 PM81 °FPassing clouds.5 mph79%29.98 "Hg10 mi
8:56 PM82 °FClear.6 mph74%29.97 "Hg10 mi
7:56 PM82 °FClear.7 mph74%29.97 "Hg10 mi
6:56 PM84 °FScattered clouds.8 mph65%29.95 "Hg10 mi
5:56 PM87 °FScattered clouds.8 mph57%29.93 "Hg10 mi
4:56 PM90 °FScattered clouds.9 mph48%29.92 "Hg10 mi
3:56 PM92 °FScattered clouds.7 mph44%29.91 "Hg10 mi
2:56 PM93 °FScattered clouds.7 mph46%29.92 "Hg10 mi
Weather by CustomWeather, © 2014

See weather overviewHow to use our weather pages